Regional Weather Roundup
Issued by NWS

Home | Current Version | Previous Version | Graphics & Text | Print | Product List | Glossary On
Versions: 1 2 3 4 5 6 7 8 9 10 11 12 13 14 15 16 17 18 19 20 21 22 23 24 25 26 27 28 29 30 31 32 33 34 35 36 37 38 39 40 41 42 43 44 45 46 47 48 49 50
000
ASUS43 KDMX 080607
RWRIA

WEATHER ROUNDUP FOR IOWA
NATIONAL WEATHER SERVICE DES MOINES IA
100 AM CDT WED JUL 08 2015

NOTE: "FAIR" INDICATES FEW OR NO CLOUDS BELOW 12,000 FEET WITH NO
SIGNIFICANT WEATHER AND/OR OBSTRUCTIONS TO VISIBILITY.

* - THESE STATIONS ARE NOT NWS STATIONS...THUS NOT UNDER NWS
QUALITY CONTROL.  THEY ALSO DO NOT REPORT WEATHER SUCH
AS PRECIPITATION OR FOG.

IAZ001>003-012>014-020>022-031>034-043>046-080700-
   NORTHWEST IOWA

CITY           SKY/WX    TMP DP  RH WIND       PRES   REMARKS
CARROLL *      CLOUDY    55  54  94 CALM      30.12R
CHEROKEE *     PTCLDY    54  52  95 CALM      30.12S
DENISON *      MOCLDY    55  54  94 CALM      30.10S
LE MARS *        N/A     59  54  82 VRB6      30.12S
ORANGE CITY *  CLEAR     54  48  82 CALM      30.12S
SHELDON *      CLEAR     52  52 100 E5        30.11S
SIOUX CITY     CLEAR     54  50  86 CALM      30.11S
6HR MIN TEMP:  54; 6HR MAX TEMP:  71;

SPENCER        PTCLDY    51  48  89 NE3       30.13S
6HR MIN TEMP:  51; 6HR MAX TEMP:  69;

STORM LAKE *   CLEAR     55  50  82 E5        30.13S
$$

IAZ055>058-069>071-079>083-090>094-080700-
   SOUTHWEST IOWA

CITY           SKY/WX    TMP DP  RH WIND       PRES   REMARKS
ATLANTIC *     CLEAR     52  52 100 NE3       30.10F
AUDUBON *      CLEAR     52  48  87 CALM      30.12F
CLARINDA *     CLEAR     59  55  88 N3        30.10F
COUNCIL BLFS * CLEAR     57  54  88 E6        30.10F
CRESTON *      CLEAR     57  54  88 NE7       30.10F
HARLAN  *      CLEAR     52  52 100 CALM      30.14S
LAMONI         CLOUDY    62  54  74 NE5       30.09F
6HR MIN TEMP:  61; 6HR MAX TEMP:  70;

RED OAK *      CLEAR     57  54  88 NE5       30.10F
SHENANDOAH *     N/A     57  55  94 NE6       30.09F
$$

IAZ047>049-059>061-072>074-084-080700-
   CENTRAL IOWA

CITY           SKY/WX    TMP DP  RH WIND       PRES   REMARKS
AMES           CLEAR     54  51  90 CALM      30.11F
6HR MIN TEMP:  53; 6HR MAX TEMP:  70;

ANKENY *       CLEAR     55  54  94 N3        30.10F
CHARITON *     CLOUDY    59  55  88 NE3       30.10S
DES MOINES     PTCLDY    61  51  70 E5        30.10F
6HR MIN TEMP:  61; 6HR MAX TEMP:  71;

GRINNELL*      MOCLDY    57  53  86 NE5       30.11F
KNOXVILLE *    CLOUDY    61  52  72 NE6       30.09S
MARSHALLTOWN   PTCLDY    54  51  90 NE6       30.11S
6HR MIN TEMP:  54; 6HR MAX TEMP:  68;

PELLA *        MOCLDY    60  56  89 CALM      30.11S
PERRY *          N/A     55  52  88 CALM      30.11S
$$

IAZ004>006-015-016-023>025-035-036-080700-
   NORTH CENTRAL IOWA

CITY           SKY/WX    TMP DP  RH WIND       PRES   REMARKS
ALGONA *       CLEAR     57  54  88 E3        30.12F
CLARION *      CLEAR     54  50  87 E6        30.12F
ESTHERVILLE    PTCLDY    52  50  93 CALM      30.12S
6HR MIN TEMP:  52; 6HR MAX TEMP:  66;

FORT DODGE *   MOCLDY    54  48  82 E3        30.12F
MASON CITY     MOCLDY    56  53  90 CALM      30.14S
6HR MIN TEMP:  56; 6HR MAX TEMP:  67; 6HR PCP: TRACE;

FOREST CITY *  CLEAR     54  54 100 CALM      30.13S
IOWA FALLS *     N/A     54  52  94 CALM      30.13S
$$

IAZ007>011-017>019-026>030-037>042-050>054-066-080700-
   NORTHEAST IOWA

CITY           SKY/WX    TMP DP  RH WIND       PRES   REMARKS
CEDAR RAPIDS   MOCLDY    58  53  84 NE7       30.11S
6HR MIN TEMP:  58; 6HR MAX TEMP:  69;

CHARLES CITY * CLOUDY    57  55  94 CALM      30.13F
CLINTON *      MOCLDY    57  52  82 E9        30.13F
DECORAH *        N/A    N/A N/A N/A MISG        N/A
DUBUQUE        CLOUDY    55  50  83 NE3       30.12S
6HR MIN TEMP:  55; 6HR MAX TEMP:  68;

MONTICELLO *   CLEAR     54  54 100 CALM      30.12S
OELWEIN *        N/A     54  52  94 E5        30.13S
WATERLOO       PTCLDY    54  51  90 CALM      30.11F
6HR MIN TEMP:  54; 6HR MAX TEMP:  68;

$$

IAZ064-065-067-068-078-080700-
   EAST CENTRAL IOWA

CITY           SKY/WX    TMP DP  RH WIND       PRES   REMARKS
DAVENPORT      MOCLDY    59  55  87 NE7       30.11S
6HR MIN TEMP:  58; 6HR MAX TEMP:  70;

IOWA CITY      CLOUDY    61  53  75 NE6       30.12R
6HR MIN TEMP:  60; 6HR MAX TEMP:  73;

MT. PLEASANT * CLOUDY    63  58  83 NE5       30.10S
MUSCATINE *    PTCLDY    61  55  82 CALM      30.11S
QUAD CITIES    CLOUDY    62  56  80 E5        30.10R
6HR MIN TEMP:  60; 6HR MAX TEMP:  71;

$$

IAZ062-063-075>077-085>089-095>099-080700-
   SOUTHEAST IOWA

CITY           SKY/WX    TMP DP  RH WIND       PRES   REMARKS
BURLINGTON     CLOUDY    64  58  80 NE7       30.09S
6HR MIN TEMP:  63; 6HR MAX TEMP:  70;

FAIRFIELD *    CLOUDY    61  57  88 N5        30.10S
FORT MADISON * PTCLDY    63  61  94 NE3       30.09F FOG
KEOKUK *       CLOUDY    64  59  82 NE7       30.07F
OSKALOOSA *    CLOUDY    59  55  87 NE3       30.10F
CENTERVILLE *  CLEAR     61  57  88 NE3       30.11S
OTTUMWA        CLOUDY    61  56  83 NE6       30.08F
6HR MIN TEMP:  61; 6HR MAX TEMP:  70;

WASHINGTON *   CLOUDY    61  57  88 NE6       30.11F
$$

ABBREVIATIONS USED IN REMARKS
   TC - TEMPERATURES IN CELSIUS
  WCI - WIND CHILL INDEX
   HX - HEAT INDEX
  VSB - VISIBILITY
$$




USA.gov is the U.S. government's official web portal to all federal, state and local government web resources and services.